Cross City, FL

4:02 AM EDT on July 28, 2017 (GMT -0400)
Cross City

Weather History for KCTY - April, 2013

Change the Weather History Date:

Tuesday, April 16, 2013

  Actual Average Record
Temperature  
Mean Temperature 77 °F 67 °F  
Max Temperature 90 °F 80 °F 90 °F (2013)
Min Temperature 63 °F 54 °F 36 °F (2008)
Degree Days  
Heating Degree Days 0 2  
Month to date heating degree days 11 37  
Since 1 July heating degree days 1104 1292  
Cooling Degree Days 12 3  
Month to date cooling degree days 86 47  
Year to date cooling degree days 204 121  
Growing Degree Days 26 (Base 50)    
Moisture  
Dew Point 63 °F    
Average Humidity 66    
Maximum Humidity 93    
Minimum Humidity 43    
Precipitation  
Precipitation 0.00 in 0.10 in 0.06 in (2002)
Month to date precipitation 1.49 2.04  
Year to date precipitation 6.21 13.56  
Sea Level Pressure  
Sea Level Pressure 30.12 in    
Wind  
Wind Speed 4 mph (ENE)    
Max Wind Speed 9 mph    
Max Gust Speed 15 mph    
T = Trace of Precipitation, MM = Missing Value Source: NWS Daily Summary

Daily Weather History Graph

Daily Weather History Graph

Search for Another Location

Airport or City:

Trip Planner

Search our weather history database for the weather conditions in past years. The results will help you decide how hot, cold, wet, or windy it might be!

Date:

Astronomy

Apr. 16, 2013 Rise Set
Actual Time 7:04 AM EDT 8:00 PM EDT
Civil Twilight 6:40 AM EDT 8:24 PM EDT
Nautical Twilight 6:11 AM EDT 8:53 PM EDT
Astronomical Twilight 5:41 AM EDT 9:23 PM EDT
Moon 11:33 AM EDT (4/16) 12:44 AM EDT (4/16)
Length of Visible Light 13h 44m
Length of Day
12h 55m
Waxing Crescent, 33% of the Moon is Illuminated
Apr 16
Waxing Crescent
Apr 18
First Quarter
Apr 25
Full
May 2
Last Quarter
May 9
New

Hourly Weather History & Observations

Time (EDT) Temp. Heat Index Dew Point Humidity Pressure Visibility Wind Dir Wind Speed Gust Speed Precip Events Conditions
12:53 AM 70.0 °F - 64.9 °F 84% 30.11 in - East 4.6 mph - N/A   Unknown
1:53 AM 68.0 °F - 63.0 °F 84% 30.09 in - ENE 4.6 mph - N/A   Unknown
2:53 AM 66.9 °F - 62.1 °F 84% 30.08 in - Calm Calm - N/A   Unknown
3:53 AM 66.0 °F - 61.0 °F 84% 30.08 in - Calm Calm - N/A   Unknown
4:53 AM 64.0 °F - 60.1 °F 87% 30.08 in - Calm Calm - N/A   Unknown
5:53 AM 63.0 °F - 60.1 °F 90% 30.10 in - NE 3.5 mph - N/A   Unknown
6:53 AM 64.0 °F - 61.0 °F 90% 30.11 in - Calm Calm - N/A   Unknown
7:53 AM 64.9 °F - 61.0 °F 87% 30.13 in - NE 3.5 mph - N/A   Unknown
8:53 AM 69.1 °F - 63.0 °F 81% 30.15 in - Variable 5.8 mph - N/A   Unknown
9:53 AM 73.0 °F - 63.0 °F 71% 30.16 in - East 6.9 mph - N/A   Unknown
10:53 AM 77.0 °F - 64.9 °F 66% 30.16 in - Variable 4.6 mph - N/A   Unknown
11:53 AM 81.0 °F 83.3 °F 66.9 °F 62% 30.16 in - East 6.9 mph - N/A   Unknown
12:53 PM 84.9 °F 87.6 °F 66.9 °F 55% 30.14 in - NE 6.9 mph - N/A   Unknown
1:53 PM 88.0 °F 90.7 °F 66.9 °F 49% 30.13 in - Variable 4.6 mph - N/A   Unknown
2:53 PM 89.1 °F 91.0 °F 64.9 °F 45% 30.11 in - Calm Calm - N/A   Unknown
3:53 PM 90.0 °F 91.3 °F 64.0 °F 42% 30.11 in - ENE 6.9 mph - N/A   Unknown
4:53 PM 90.0 °F 91.3 °F 64.0 °F 42% 30.09 in - Variable 3.5 mph - N/A   Unknown
5:53 PM 87.1 °F 87.5 °F 62.1 °F 43% 30.10 in - NNE 6.9 mph - N/A   Unknown
6:53 PM 87.1 °F 87.5 °F 62.1 °F 43% 30.10 in - Variable 3.5 mph - N/A   Unknown
7:53 PM 82.9 °F 84.0 °F 63.0 °F 51% 30.11 in - ENE 5.8 mph - N/A   Unknown
8:53 PM 80.1 °F 81.7 °F 64.0 °F 58% 30.13 in - East 6.9 mph - N/A   Unknown
9:53 PM 77.0 °F - 64.0 °F 64% 30.15 in - East 4.6 mph - N/A   Unknown
10:53 PM 75.0 °F - 64.0 °F 69% 30.16 in - East 4.6 mph - N/A   Unknown
11:53 PM 73.0 °F - 64.0 °F 73% 30.16 in - East 4.6 mph - N/A   Unknown